Regional Weather Roundup
Issued by NWS Kansas City/Pleasant Hill, MO

Home | Current Version | Previous Version | Text Only | Print | Product List | Glossary On
Versions: 1 2 3 4 5 6 7 8 9 10 11 12 13 14 15 16 17 18 19 20 21 22 23 24 25 26 27 28 29 30 31 32 33 34 35 36 37 38 39 40 41 42 43 44 45 46 47 48 49 50
000
ASUS43 KEAX 050610
RWREAX

WEATHER ROUNDUP FOR EASTERN KANSAS AND NORTHWEST MISSOURI
NATIONAL WEATHER SERVICE KANSAS CITY/PLEASANT HILL MO
100 AM CDT WED AUG 05 2015

KSZ040-057-103>105-MOZ028-029-037-043-050700-
...KANSAS CITY METROPOLITAN AREA...

CITY           SKY/WX    TMP DP  RH WIND       PRES   REMARKS
K.C. INTL      PTCLDY    70  68  93 SE9       29.99S
6HR MIN TEMP:  70; 6HR MAX TEMP:  72; 6HR PCP:  0.13;

K.C. DOWNTOWN  PTCLDY    72  69  90 SE7       29.98F
6HR MIN TEMP:  72; 6HR MAX TEMP:  74; 6HR PCP:  0.01;

LEES SUMMIT    CLOUDY    71  68  90 SE6       30.00F
6HR MIN TEMP:  70; 6HR MAX TEMP:  72; 6HR PCP:  0.08;

OLATHE - IXD   CLOUDY    71  69  93 E5        30.00R
6HR MIN TEMP:  71; 6HR MAX TEMP:  72; 6HR PCP:  0.08;

OLATHE - OJC   CLOUDY    70  68  93 E7        29.99S
6HR MIN TEMP:  70; 6HR MAX TEMP:  71; 6HR PCP:  0.06;

LAWRENCE       PTCLDY    70  68  93 SE6       29.97F FOG

$$

MOZ001>008-011>017-020>025-030>033-038>040-044>046-053-054-050700-
...NORTHERN AND CENTRAL MISSOURI...

CITY           SKY/WX    TMP DP  RH WIND       PRES   REMARKS
ST. JOSEPH     MOCLDY    71  68  90 SE7       29.98S
6HR MIN TEMP:  70; 6HR MAX TEMP:  72;

MOSBY          PTCLDY    70  68  94 SE5       30.00S
WARRENSBURG    DRIZZLE   70  68  94 CALM      30.01S
WHITEMAN AFB   LGT RAIN  70  68  95 S1        29.99S
6HR MIN TEMP:  69; 6HR MAX TEMP:  72; 6HR PCP:  0.16;

CLINTON        CLOUDY    73  72  94 SE5       30.00F FOG
SEDALIA        MOCLDY    70  68  93 W5        30.00F
6HR MIN TEMP:  69; 6HR MAX TEMP:  79; 6HR PCP:  0.33;

WARSAW         NOT AVBL
CHILLICOTHE      N/A     73  69  87 E5        30.01S
6HR MIN TEMP:  71; 6HR MAX TEMP:  79;

KIRKSVILLE     PTCLDY    69  64  84 SE6       30.03F
6HR MIN TEMP:  69; 6HR MAX TEMP:  76; 6HR PCP: TRACE;


$$

MOZ041-047>049-056>058-063>065-088>090-097-050700-
...EASTERN AND SOUTHERN MISSOURI...

CITY           SKY/WX    TMP DP  RH WIND       PRES   REMARKS
ST. LOUIS INTL CLOUDY    77  68  73 NE8       30.01F
6HR MIN TEMP:  77; 6HR MAX TEMP:  84;

SPIRIT OF STL  CLOUDY    76  74  93 CALM      29.99F
COLUMBIA       CLOUDY    69  67  93 S7        30.00R
JEFFERSON CITY CLOUDY    70  67  90 S8        30.00S
ROLLA          CLOUDY    71  64  78 E6        30.01F
OSAGE BEACH    CLOUDY    70  66  88 E3        30.02R
SPRINGFIELD    CLOUDY    73  69  87 SE10      30.01F
BRANSON        LGT RAIN  68  68 100 CALM      30.04F
JOPLIN         PTCLDY    73  71  93 SE7       29.96F FOG
WEST PLAINS    LGT RAIN  73  63  70 SE9       30.04F

$$

IAZ060-094-KSZ022-034>040-054-083-096-NEZ052-066-093-050700-
...KANSAS...SOUTHEAST NEBRASKA AND IOWA...

CITY           SKY/WX    TMP DP  RH WIND       PRES   REMARKS
TOPEKA         PTCLDY    71  69  93 SE7       29.96S
6HR MIN TEMP:  71; 6HR MAX TEMP:  73; 6HR PCP: TRACE;

MANHATTAN      CLOUDY    72  67  84 CALM      29.95R
EMPORIA        MOCLDY    70  66  87 S8        29.96S
CHANUTE        CLOUDY    72  69  90 SE8       29.96S
WICHITA        MOCLDY    74  70  87 E8        29.95S
OMAHA          MOCLDY    69  66  90 E6        29.98R
LINCOLN        CLOUDY    73  69  87 CALM      29.97R
FALLS CITY     MOCLDY    69  68  96 E7        29.96R
LAMONI         MOCLDY    72  67  84 E5        30.00S
DES MOINES     CLOUDY    71  62  73 SE9       30.01F

$$




USA.gov is the U.S. government's official web portal to all federal, state and local government web resources and services.